TimeAKST,TemperatureF,Dew PointF,Humidity,Sea Level PressureIn,VisibilityMPH,Wind Direction,Wind SpeedMPH,Gust SpeedMPH,PrecipitationIn,Events,Conditions,WindDirDegrees,DateUTC
12:16 AM,-16.6,-22.0,76,30.24,10.0,Calm,Calm,-,N/A,,Clear,0,2012-11-17 09:16:00
12:36 AM,-16.6,-23.8,70,30.24,10.0,Calm,Calm,-,N/A,,Clear,0,2012-11-17 09:36:00
12:56 AM,-16.6,-23.8,70,30.24,10.0,Calm,Calm,-,N/A,,Clear,0,2012-11-17 09:56:00
1:16 AM,-16.6,-22.0,76,30.23,10.0,Calm,Calm,-,N/A,,Clear,0,2012-11-17 10:16:00
1:36 AM,-20.2,-27.4,69,30.23,10.0,Calm,Calm,-,N/A,,Clear,0,2012-11-17 10:36:00
1:56 AM,-18.4,-23.8,76,30.23,10.0,Calm,Calm,-,N/A,,Clear,0,2012-11-17 10:56:00
2:16 AM,-18.4,-23.8,76,30.23,10.0,Calm,Calm,-,N/A,,Clear,0,2012-11-17 11:16:00
2:36 AM,-18.4,-23.8,76,30.22,10.0,Calm,Calm,-,N/A,,Clear,0,2012-11-17 11:36:00
2:56 AM,-20.2,-25.6,76,30.22,10.0,Calm,Calm,-,N/A,,Clear,0,2012-11-17 11:56:00
3:16 AM,-20.2,-29.2,63,30.22,10.0,Calm,Calm,-,N/A,,Clear,0,2012-11-17 12:16:00
3:36 AM,-18.4,-18.4,100,30.22,10.0,Calm,Calm,-,N/A,,Clear,0,2012-11-17 12:36:00
3:56 AM,-18.4,-29.2,58,30.22,10.0,Calm,Calm,-,N/A,,Clear,0,2012-11-17 12:56:00
4:16 AM,-18.4,-27.4,63,30.21,10.0,Calm,Calm,-,N/A,,Clear,0,2012-11-17 13:16:00
4:36 AM,-18.4,-18.4,100,30.21,10.0,Calm,Calm,-,N/A,,Clear,0,2012-11-17 13:36:00
4:56 AM,-18.4,-29.2,58,30.21,10.0,Calm,Calm,-,N/A,,Clear,0,2012-11-17 13:56:00
5:16 AM,-20.2,-25.6,76,30.20,10.0,Calm,Calm,-,N/A,,Clear,0,2012-11-17 14:16:00
5:36 AM,-20.2,-25.6,76,30.19,10.0,Calm,Calm,-,N/A,,Clear,0,2012-11-17 14:36:00
5:56 AM,-20.2,-23.8,83,30.19,5.0,Calm,Calm,-,N/A,,Clear,0,2012-11-17 14:56:00
6:16 AM,-20.2,-27.4,69,30.18,10.0,Calm,Calm,-,N/A,,Clear,0,2012-11-17 15:16:00
6:36 AM,-20.2,-23.8,83,30.18,10.0,Calm,Calm,-,N/A,,Clear,0,2012-11-17 15:36:00
6:56 AM,-20.2,-29.2,63,30.18,10.0,Calm,Calm,-,N/A,,Clear,0,2012-11-17 15:56:00
7:16 AM,-20.2,-25.6,76,30.18,10.0,Calm,Calm,-,N/A,,Clear,0,2012-11-17 16:16:00
7:36 AM,-20.2,-20.2,100,30.17,10.0,Calm,Calm,-,N/A,,Clear,0,2012-11-17 16:36:00
7:56 AM,-20.2,-9999,N/A,30.17,10.0,Calm,Calm,-,N/A,,Clear,0,2012-11-17 16:56:00
8:16 AM,-20.2,-27.4,69,30.16,10.0,Calm,Calm,-,N/A,,Clear,0,2012-11-17 17:16:00
8:36 AM,-20.2,-25.6,76,30.16,10.0,Calm,Calm,-,N/A,,Clear,0,2012-11-17 17:36:00
8:56 AM,-20.2,-23.8,83,30.15,10.0,Calm,Calm,-,N/A,,Clear,0,2012-11-17 17:56:00
9:16 AM,-20.2,-9999,N/A,30.15,10.0,Calm,Calm,-,N/A,,Clear,0,2012-11-17 18:16:00
9:36 AM,-20.2,-9999,N/A,30.14,10.0,Calm,Calm,-,N/A,,Clear,0,2012-11-17 18:36:00
9:56 AM,-20.2,-23.8,83,30.14,10.0,Calm,Calm,-,N/A,,Clear,0,2012-11-17 18:56:00
10:16 AM,-20.2,-27.4,69,30.14,10.0,Calm,Calm,-,N/A,,Clear,0,2012-11-17 19:16:00
10:36 AM,-9999,-9999,N/A,30.13,7.0,Calm,Calm,-,N/A,,Clear,0,2012-11-17 19:36:00
10:56 AM,-20.2,-22.0,91,30.12,2.5,Calm,Calm,-,N/A,,Clear,0,2012-11-17 19:56:00
11:16 AM,-20.2,-9999,N/A,30.12,10.0,Calm,Calm,-,N/A,,Clear,0,2012-11-17 20:16:00
11:36 AM,-20.2,-9999,N/A,30.12,10.0,Calm,Calm,-,N/A,,Clear,0,2012-11-17 20:36:00
11:56 AM,-20.2,-25.6,76,30.11,10.0,Calm,Calm,-,N/A,,Clear,0,2012-11-17 20:56:00
12:16 PM,-18.4,-9999,N/A,30.11,10.0,SSE,3.5,-,N/A,,Clear,150,2012-11-17 21:16:00
12:36 PM,-16.6,-29.2,53,30.10,10.0,Calm,Calm,-,N/A,,Clear,0,2012-11-17 21:36:00
12:56 PM,-14.8,-16.6,92,30.10,10.0,Calm,Calm,-,N/A,,Clear,0,2012-11-17 21:56:00
1:16 PM,-14.8,-9999,N/A,30.09,10.0,Calm,Calm,-,N/A,,Clear,0,2012-11-17 22:16:00
1:36 PM,-13.0,-27.4,49,30.09,10.0,Calm,Calm,-,N/A,,Clear,0,2012-11-17 22:36:00
1:56 PM,-9999,-9999,N/A,30.08,10.0,Calm,Calm,-,N/A,,Clear,0,2012-11-17 22:56:00
2:16 PM,-11.2,-23.8,54,30.07,10.0,Calm,Calm,-,N/A,,Clear,0,2012-11-17 23:16:00
2:36 PM,-7.6,-9999,N/A,30.07,10.0,NW,8.1,-,N/A,,Clear,320,2012-11-17 23:36:00
2:56 PM,-5.8,-29.2,32,30.05,10.0,NW,9.2,-,N/A,,Clear,320,2012-11-17 23:56:00
3:16 PM,-4.0,-4.0,100,30.05,10.0,NW,9.2,-,N/A,,Clear,310,2012-11-18 00:16:00
3:36 PM,-5.8,-16.6,60,30.04,10.0,NW,10.4,-,N/A,,Clear,320,2012-11-18 00:36:00
3:56 PM,-5.8,-5.8,100,30.04,10.0,NW,9.2,-,N/A,,Clear,320,2012-11-18 00:56:00
4:16 PM,-5.8,-16.6,60,30.04,10.0,NW,10.4,-,N/A,,Clear,320,2012-11-18 01:16:00
4:36 PM,-5.8,-9.4,84,30.05,10.0,NNW,9.2,-,N/A,,Clear,330,2012-11-18 01:36:00
4:56 PM,-5.8,-11.2,77,30.04,10.0,NW,5.8,-,N/A,,Clear,310,2012-11-18 01:56:00
5:16 PM,-5.8,-14.8,65,30.04,10.0,Calm,Calm,-,N/A,,Clear,0,2012-11-18 02:16:00
5:36 PM,-5.8,-7.6,92,30.03,10.0,Calm,Calm,-,N/A,,Clear,0,2012-11-18 02:36:00
5:56 PM,-5.8,-11.2,77,30.03,10.0,Calm,Calm,-,N/A,,Clear,0,2012-11-18 02:56:00
6:16 PM,-5.8,-11.2,77,30.02,10.0,North,3.5,-,N/A,,Clear,360,2012-11-18 03:16:00
6:36 PM,-7.6,-16.6,65,30.02,10.0,North,5.8,-,N/A,,Clear,360,2012-11-18 03:36:00
6:56 PM,-5.8,-5.8,100,30.02,10.0,NNW,9.2,-,N/A,,Clear,340,2012-11-18 03:56:00
7:16 PM,-5.8,-25.6,38,30.02,10.0,North,4.6,-,N/A,,Clear,360,2012-11-18 04:16:00
7:36 PM,-5.8,-7.6,92,30.01,10.0,NNW,9.2,-,N/A,,Clear,340,2012-11-18 04:36:00
7:56 PM,-5.8,-29.2,32,30.02,10.0,North,6.9,-,N/A,,Clear,360,2012-11-18 04:56:00
8:16 PM,-5.8,-14.8,65,30.02,10.0,NE,4.6,-,N/A,,Clear,50,2012-11-18 05:16:00
8:36 PM,-5.8,-11.2,77,30.00,10.0,North,10.4,-,N/A,,Clear,350,2012-11-18 05:36:00
8:56 PM,-9.4,-9.4,100,30.00,10.0,West,6.9,-,N/A,,Clear,280,2012-11-18 05:56:00
9:16 PM,-7.6,-9.4,92,30.00,10.0,SW,5.8,-,N/A,,Clear,220,2012-11-18 06:16:00
9:36 PM,-5.8,-5.8,100,29.99,10.0,WSW,3.5,-,N/A,,Clear,240,2012-11-18 06:36:00
9:56 PM,-5.8,-9.4,84,29.99,10.0,Calm,Calm,-,N/A,,Clear,0,2012-11-18 06:56:00
10:16 PM,-5.8,-9.4,84,29.99,10.0,Calm,Calm,-,N/A,,Clear,0,2012-11-18 07:16:00
10:36 PM,-5.8,-7.6,92,29.99,10.0,WNW,4.6,-,N/A,,Clear,300,2012-11-18 07:36:00
10:56 PM,-5.8,-14.8,65,29.99,10.0,West,5.8,-,N/A,,Clear,270,2012-11-18 07:56:00
11:16 PM,-5.8,-5.8,100,29.99,10.0,NW,3.5,-,N/A,,Clear,310,2012-11-18 08:16:00
11:36 PM,-7.6,-14.8,71,29.99,10.0,NNW,8.1,-,N/A,,Clear,340,2012-11-18 08:36:00
11:56 PM,-7.6,-9.4,92,29.99,10.0,North,4.6,-,N/A,,Clear,350,2012-11-18 08:56:00